Home   Weather   Tiruvarur   Past weeks

Flag for India Past Weather in Tiruvarur, Tamil Nadu, India — Yesterday and Last 2 Weeks

Now
84 °F

Passing clouds.


Feels Like: 87 °F
Forecast: 79 / 95 °F
Wind: 12 mph from West

Location: Tiruchchirapalli

Current Time: Sep 26, 2016 at 4:10:20 AM

Latest Report: Sep 26, 2016 at 3:30 AM


Visibility: 4 mi

Pressure: 29.68 "Hg

Humidity: 58%

Dew Point: 68 °F

Location of TiruvarurLocation

Past Weather in Tiruvarur — Graph

°F

Tiruvarur Temperature Yesterday

Maximum temperature yesterday: 99 °F (at 2:30 PM)
Minimum temperature yesterday: 81 °F (at 4:30 AM)
Average temperature yesterday: 89 °F

High & Low Weather Summary for the Past Weeks

 TemperatureHumidityPressure
High102 °F (Sep 16, 2:00 PM)84% (Sep 12, 11:30 PM)29.83 "Hg (Sep 12, 11:30 PM)
Low79 °F (Sep 11, 4:30 AM)31% (Sep 16, 2:00 PM)29.53 "Hg (Sep 18, 9:30 AM)
Average88 °F55%29.71 "Hg
* Reported Sep 11 2:30 AM — Sep 26 3:00 AM, Tiruvarur, Weather by CustomWeather, © 2016

Note: Actual official high and low records may vary slightly from our data, if they occured in-between our weather recording intervals... More about our weather records

Advertising

Tiruvarur Weather History for the Previous 24 Hours

Scroll right to see more
 ConditionsComfort  
Time TempWeatherWind HumidityBarometerVisibility
3:00 AM
Mon, Sep 26
84 °FPassing clouds.12 mph58%29.68 "Hg4 mi
2:30 AM84 °FPassing clouds.12 mph58%29.68 "Hg4 mi
2:00 AM84 °FPassing clouds.12 mph58%29.68 "Hg4 mi
1:30 AM84 °FPassing clouds.12 mph58%29.68 "Hg4 mi
1:00 AM84 °FPassing clouds.12 mph58%29.68 "Hg4 mi
12:30 AM84 °FPassing clouds.12 mph58%29.68 "Hg4 mi
12:00 AM84 °FPassing clouds.9 mph58%29.71 "Hg4 mi
11:30 PM
Sun, Sep 25
86 °FPassing clouds.12 mph55%29.74 "Hg4 mi
11:00 PM86 °FPassing clouds.14 mph62%29.71 "Hg4 mi
10:30 PM86 °FPassing clouds.14 mph62%29.71 "Hg4 mi
10:00 PM86 °FPassing clouds.9 mph62%29.71 "Hg4 mi
9:30 PM86 °FPassing clouds.9 mph62%29.71 "Hg4 mi
9:00 PM88 °FPassing clouds.5 mph59%29.71 "Hg4 mi
8:30 PM90 °FPassing clouds.6 mph55%29.71 "Hg4 mi
8:00 PM90 °FPassing clouds.9 mph52%29.68 "Hg4 mi
7:30 PM91 °FPassing clouds.6 mph46%29.68 "Hg4 mi
7:00 PM93 °FPassing clouds.9 mph44%29.65 "Hg5 mi
6:30 PM95 °FScattered clouds.9 mph41%29.62 "Hg5 mi
6:00 PM97 °FScattered clouds.9 mph39%29.62 "Hg5 mi
5:30 PM97 °FScattered clouds.9 mph39%29.62 "HgN/A
5:00 PM97 °FScattered clouds.9 mph37%29.59 "HgN/A
4:30 PM97 °FScattered clouds.12 mph37%29.59 "HgN/A
4:00 PM99 °FScattered clouds.12 mph35%29.59 "HgN/A
3:30 PM99 °FScattered clouds.12 mph35%29.59 "HgN/A
3:00 PM99 °FScattered clouds.12 mph35%29.59 "HgN/A
2:30 PM99 °FScattered clouds.12 mph35%29.62 "HgN/A
2:00 PM97 °FScattered clouds.12 mph37%29.62 "HgN/A
1:30 PM97 °FPassing clouds.12 mph37%29.62 "HgN/A
1:00 PM97 °FPassing clouds.12 mph37%29.65 "HgN/A
12:30 PM95 °FPassing clouds.12 mph39%29.65 "HgN/A
12:00 PM95 °FPassing clouds.9 mph39%29.68 "HgN/A
11:30 AM95 °FPassing clouds.12 mph39%29.71 "HgN/A
11:00 AM93 °FPassing clouds.12 mph44%29.71 "Hg5 mi
10:30 AM91 °FPassing clouds.12 mph46%29.71 "Hg5 mi
10:00 AM91 °FPassing clouds.9 mph46%29.74 "Hg5 mi
9:30 AM90 °FPassing clouds.9 mph49%29.74 "Hg5 mi
9:00 AM88 °FPassing clouds.16 mph52%29.74 "Hg4 mi
8:30 AM86 °FPassing clouds.14 mph55%29.74 "Hg4 mi
8:00 AM84 °FHaze.13 mph58%29.74 "Hg3 mi
7:30 AM84 °FHaze.12 mph58%29.71 "Hg3 mi
7:00 AM82 °FHaze.9 mph62%29.71 "Hg3 mi
6:30 AM81 °FHaze.12 mph62%29.71 "Hg3 mi
6:00 AM81 °FPassing clouds.10 mph62%29.68 "Hg4 mi
5:30 AM81 °FPassing clouds.10 mph62%29.65 "Hg4 mi
5:00 AM81 °FPassing clouds.13 mph62%29.65 "Hg4 mi
4:30 AM81 °FPassing clouds.13 mph62%29.65 "Hg4 mi
Weather by CustomWeather, © 2016

See weather overviewHow to use our weather pages